Novato, CA

11:15 AM PDT on April 26, 2017 (GMT -0700)
Gnoss

Weather History for KDVO - April, 2013

Change the Weather History Date:

Thursday, April 18, 2013

  Actual Average (KAPC) Record (KAPC)
Temperature  
Mean Temperature 58 °F -  
Max Temperature 75 °F 69 °F 83 °F (2016)
Min Temperature 41 °F 43 °F 33 °F (2005)
Degree Days  
Heating Degree Days 7    
Growing Degree Days 8 (Base 50)    
Moisture  
Dew Point 40 °F    
Average Humidity 55    
Maximum Humidity 100    
Minimum Humidity 24    
Precipitation  
Precipitation 0.00 in - - ()
Sea Level Pressure  
Sea Level Pressure 30.24 in    
Wind  
Wind Speed 6 mph (NNW)    
Max Wind Speed 13 mph    
Max Gust Speed 20 mph    
Visibility 10 miles    
Events      
Averages and records for this station are not official NWS values.
T = Trace of Precipitation, MM = Missing Value Source: NWS Daily Summary

Daily Weather History Graph

Daily Weather History Graph

Search for Another Location

Airport or City:

Trip Planner

Search our weather history database for the weather conditions in past years. The results will help you decide how hot, cold, wet, or windy it might be!

Date:

Astronomy

Apr. 18, 2013 Rise Set
Actual Time 6:30 AM PDT 7:49 PM PDT
Civil Twilight 6:02 AM PDT 8:17 PM PDT
Nautical Twilight 5:29 AM PDT 8:50 PM PDT
Astronomical Twilight 4:55 AM PDT 9:24 PM PDT
Moon 12:48 PM PDT (4/18) 2:06 AM PDT (4/18)
Length of Visible Light 14h 14m
Length of Day
13h 19m
First Quarter, 53% of the Moon is Illuminated
Apr 18
First Quarter
Apr 25
Full
May 2
Last Quarter
May 9
New
May 17
First Quarter

Hourly Weather History & Observations

Time (PDT) Temp. Windchill Dew Point Humidity Pressure Visibility Wind Dir Wind Speed Gust Speed Precip Events Conditions
12:15 AM 57.2 °F - 37.4 °F 48% 30.24 in - NW 12.7 mph - N/A   Clear
12:35 AM 57.2 °F - 37.4 °F 48% 30.24 in - NW 10.4 mph - N/A   Clear
12:55 AM 57.2 °F - 37.4 °F 48% 30.24 in - North 12.7 mph - N/A   Clear
1:15 AM 57.2 °F - 37.4 °F 48% 30.23 in - SSE 3.5 mph - N/A   Clear
1:35 AM 55.4 °F - 37.4 °F 51% 30.23 in - Calm Calm - N/A   Clear
1:55 AM 53.6 °F - 39.2 °F 58% 30.23 in - Calm Calm - N/A   Clear
2:15 AM 53.6 °F - 37.4 °F 54% 30.23 in - NNW 12.7 mph - N/A   Clear
2:35 AM 55.4 °F - 39.2 °F 54% 30.23 in - NNW 11.5 mph - N/A   Clear
2:55 AM 55.4 °F - 37.4 °F 51% 30.23 in - NW 8.1 mph - N/A   Clear
3:15 AM 55.4 °F - 37.4 °F 51% 30.23 in - NNW 10.4 mph - N/A   Clear
3:35 AM 50.0 °F - 39.2 °F 66% 30.23 in - North 8.1 mph - N/A   Clear
3:55 AM 48.2 °F - 39.2 °F 71% 30.23 in - NE 4.6 mph - N/A   Clear
4:15 AM 46.4 °F - 39.2 °F 76% 30.24 in - Calm Calm - N/A   Clear
4:35 AM 44.6 °F - 39.2 °F 81% 30.24 in - Calm Calm - N/A   Clear
4:55 AM 41.0 °F 38.0 °F 39.2 °F 93% 30.24 in - NW 4.6 mph - N/A   Unknown
5:15 AM 44.6 °F 42.2 °F 39.2 °F 81% 30.24 in - North 4.6 mph - N/A   Clear
5:35 AM 41.0 °F 39.0 °F 39.2 °F 93% 30.24 in - WNW 3.5 mph - N/A   Unknown
5:55 AM 42.8 °F - 39.2 °F 87% 30.24 in - Calm Calm - N/A   Unknown
6:15 AM 42.8 °F - 39.2 °F 87% 30.25 in - Calm Calm - N/A   Unknown
6:35 AM 42.8 °F - 39.2 °F 87% 30.25 in - Calm Calm - N/A   Unknown
6:55 AM 44.6 °F 43.1 °F 39.2 °F 81% 30.26 in - East 3.5 mph - N/A   Clear
7:15 AM 44.6 °F - 39.2 °F 81% 30.27 in - Calm Calm - N/A   Clear
7:35 AM 46.4 °F - 42.8 °F 87% 30.27 in - Calm Calm - N/A   Unknown
7:55 AM 48.2 °F - 42.8 °F 82% 30.28 in 10.0 mi Calm Calm - N/A   Clear
8:35 AM 53.6 °F - 42.8 °F 67% 30.27 in 10.0 mi ESE 3.5 mph - N/A   Clear
8:55 AM 57.2 °F - 42.8 °F 59% 30.28 in 10.0 mi Calm Calm - N/A   Clear
9:15 AM 59.0 °F - 41.0 °F 51% 30.28 in 10.0 mi North 6.9 mph - N/A   Clear
9:35 AM 62.6 °F - 41.0 °F 45% 30.27 in 10.0 mi North 8.1 mph - N/A   Clear
9:55 AM 64.4 °F - 41.0 °F 42% 30.27 in 10.0 mi North 5.8 mph - N/A   Clear
10:15 AM 66.2 °F - 39.2 °F 37% 30.27 in 10.0 mi NNE 5.8 mph - N/A   Clear
10:35 AM 66.2 °F - 41.0 °F 40% 30.28 in 10.0 mi North 5.8 mph - N/A   Clear
10:55 AM 68.0 °F - 39.2 °F 35% 30.28 in 10.0 mi NNW 5.8 mph - N/A   Clear
11:15 AM 68.0 °F - 35.6 °F 30% 30.27 in 10.0 mi NNW 3.5 mph - N/A   Clear
11:35 AM 69.8 °F - 35.6 °F 28% 30.27 in 10.0 mi NE 3.5 mph - N/A   Clear
11:55 AM 71.6 °F - 35.6 °F 27% 30.27 in 10.0 mi NNW 4.6 mph - N/A   Clear
12:15 PM 73.4 °F - 35.6 °F 25% 30.26 in 10.0 mi NNE 3.5 mph - N/A   Clear
12:35 PM 73.4 °F - 35.6 °F 25% 30.25 in 10.0 mi NW 4.6 mph - N/A   Clear
12:55 PM 73.4 °F - 37.4 °F 27% 30.25 in 10.0 mi NE 5.8 mph - N/A   Clear
1:15 PM 73.4 °F - 39.2 °F 29% 30.24 in 10.0 mi NNE 8.1 mph - N/A   Clear
1:35 PM 73.4 °F - 35.6 °F 25% 30.24 in 10.0 mi WNW 5.8 mph - N/A   Clear
1:55 PM 75.2 °F - 37.4 °F 25% 30.23 in 10.0 mi NNW 5.8 mph - N/A   Clear
2:15 PM 75.2 °F - 37.4 °F 25% 30.23 in 10.0 mi West 5.8 mph - N/A   Clear
2:35 PM 75.2 °F - 39.2 °F 27% 30.22 in 10.0 mi Calm Calm - N/A   Clear
2:55 PM 75.2 °F - 35.6 °F 24% 30.22 in 10.0 mi SSE 3.5 mph - N/A   Clear
3:15 PM 75.2 °F - 39.2 °F 27% 30.21 in 10.0 mi North 4.6 mph - N/A   Clear
3:35 PM 75.2 °F - 39.2 °F 27% 30.20 in 10.0 mi WNW 8.1 mph - N/A   Clear
3:55 PM 75.2 °F - 42.8 °F 31% 30.20 in 10.0 mi NNW 5.8 mph - N/A   Clear
4:15 PM 75.2 °F - 44.6 °F 34% 30.20 in 10.0 mi NNW 6.9 mph - N/A   Clear
4:35 PM 75.2 °F - 41.0 °F 29% 30.20 in 10.0 mi WNW 6.9 mph 19.6 mph N/A   Clear
4:55 PM 73.4 °F - 41.0 °F 31% 30.20 in 10.0 mi WSW 11.5 mph - N/A   Clear
5:15 PM 71.6 °F - 39.2 °F 31% 30.19 in 9.0 mi SW 12.7 mph - N/A   Clear
5:35 PM 71.6 °F - 37.4 °F 29% 30.19 in 10.0 mi SW 11.5 mph 16.1 mph N/A   Clear
5:55 PM 71.6 °F - 37.4 °F 29% 30.19 in 10.0 mi WSW 11.5 mph - N/A   Clear
6:15 PM 69.8 °F - 35.6 °F 28% 30.20 in 10.0 mi WSW 6.9 mph - N/A   Clear
6:35 PM 68.0 °F - 35.6 °F 30% 30.20 in 10.0 mi WSW 6.9 mph - N/A   Clear
7:55 PM 62.6 °F - 41.0 °F 45% 30.20 in 10.0 mi Calm Calm - N/A   Clear
8:35 PM 57.2 °F - 44.6 °F 63% 30.21 in 10.0 mi Calm Calm - N/A   Clear
8:55 PM 53.6 °F - 46.4 °F 77% 30.21 in 10.0 mi Calm Calm - N/A   Clear
9:15 PM 50.0 °F - 44.6 °F 82% 30.22 in 10.0 mi Calm Calm - N/A   Clear
9:35 PM 50.0 °F - 46.4 °F 87% 30.23 in 10.0 mi Calm Calm - N/A   Clear
9:55 PM 48.2 °F - 46.4 °F 93% 30.23 in 10.0 mi North 3.5 mph - N/A   Clear
10:15 PM 48.2 °F - 46.4 °F 93% 30.23 in 10.0 mi North 6.9 mph - N/A   Clear
10:35 PM 48.2 °F - 46.4 °F 93% 30.23 in 10.0 mi NNW 6.9 mph - N/A   Clear
10:55 PM 48.2 °F - 46.4 °F 93% 30.23 in 10.0 mi Calm Calm - N/A   Clear
11:15 PM 50.0 °F - 46.4 °F 87% 30.22 in 10.0 mi Calm Calm - N/A   Clear
11:35 PM 48.2 °F - 44.6 °F 87% 30.22 in 10.0 mi NNW 3.5 mph - N/A   Clear
11:55 PM 44.6 °F 42.2 °F 44.6 °F 100% 30.23 in 10.0 mi North 4.6 mph - N/A   Clear